[[{"header":{"parameterUnit":"m.s-1","parameterCategory":1,"la1":30.2991,"la2":30.254,"lo1":-89.0895,"lo2":-89.0444,"dy":0.0017,"dx":0.0017,"nx":28,"ny":28,"refTime":"2025-06-01T03:00:00:Z","depth":0,"parameterNumber":2,"parameterNumberName":"U-component_of_WINDS"},"data":[0,0,0,0,0,0,0,0,0,0,0,0,0,0,0,0,0,0,0,0,0,0,0,0,0,0,0,0,0,0,0,0,0,0,0,0,0,0,0,0,0,0,0,0,0,0,0,0,0,0,0,0,0,0,0,0,0,0,0.5044,0.5044,0,0.5037,0.5036,0.5036,0.5023,0.5022,0.5022,0.5022,0.5013,0.5013,0.5013,0,0,0,0,0,0,0,0,0,0,0,0,0,0.5043,0.5043,0.5044,0.5044,0.5044,0.5037,0.5036,0.5036,0.5023,0.5022,0.5022,0.5022,0.5013,0.5013,0.5013,0,0,0,0,0,0,0,0,0,0,0,0,0,0.504,0.5043,0.5044,0.5036,0.5035,0.5037,0.5036,0.5036,0.5023,0.5022,0.5022,0.5022,0.5013,0.5013,0.5013,0.502,0,0,0.5013,0.5013,0,0,0,0,0,0,0,0,0.504,0.504,0.5037,0.5037,0.5036,0.503,0.5033,0.5031,0.5023,0.5028,0.5022,0.5021,0.5019,0.5018,0.5018,0.502,0.502,0.5013,0.5013,0.5013,0.5013,0,0,0,0,0,0,0,0.504,0.504,0.5041,0.5037,0.5036,0.5032,0.5031,0.5032,0.5025,0.5027,0.5026,0.5025,0.5018,0.5018,0.5017,0.5019,0.5013,0.5013,0.5013,0.5013,0.5025,0.5025,0,0,0,0,0,0,0.5042,0.504,0.5041,0.5041,0.5037,0.5032,0.5031,0.5032,0.5025,0.5024,0.5026,0.5025,0.5018,0.5017,0.5017,0.5024,0.5013,0.5013,0.5013,0.5024,0.5025,0.5025,0,0,0,0,0,0,0.5042,0.5042,0.5041,0.504,0.504,0.5033,0.5034,0.5032,0.5032,0.5024,0.5023,0.5027,0.5017,0.5017,0.5019,0.5023,0.5013,0.5013,0.5024,0.5024,0.5025,0.5039,0,0,0,0,0,0,0.5042,0.5042,0.5046,0.5041,0.504,0.5045,0.5034,0.5033,0.5032,0.5031,0.5025,0.5023,0.5017,0.5019,0.5019,0.5023,0.5013,0.5023,0.5024,0.5025,0.5038,0.5039,0.5041,0,0,0,0,0,0.5042,0.5051,0.5047,0.5047,0.5045,0.5045,0.5045,0.5038,0.5033,0.5036,0.503,0.5024,0.5023,0.5019,0.5019,0.5023,0.5023,0.5024,0.5025,0.5037,0.5039,0.5041,0,0,0,0,0,0,0.5057,0.505,0.5045,0.5052,0.505,0.5043,0.5047,0.5041,0.5039,0.5038,0.5029,0.5027,0.503,0.5027,0.5024,0.5029,0.5022,0.5022,0.5031,0.5033,0.5035,0.5035,0.5013,0,0,0,0,0,0.5061,0.5063,0.5056,0.5063,0.5062,0.5055,0.5055,0.5049,0.5046,0.5044,0.5039,0.5036,0.5034,0.5033,0.5032,0.5037,0.5034,0.5039,0.5041,0.5042,0.5043,0.5043,0.5045,0.5027,0.5027,0.5027,0,0,0.507,0.5066,0.5068,0.5066,0.5063,0.5064,0.5054,0.5056,0.5056,0.5045,0.5046,0.5042,0.5037,0.504,0.5041,0.5037,0.5047,0.5043,0.5044,0.5044,0.5044,0.5045,0.5047,0.5028,0.5028,0.5028,0,0,0.5086,0.5084,0.5088,0.5085,0.5081,0.5076,0.5077,0.507,0.5067,0.5069,0.506,0.5059,0.5057,0.5053,0.5051,0.5062,0.5056,0.5062,0.5071,0.5071,0.5072,0.5073,0.5076,0.5077,0.5063,0.5063,0.5063,0,0.5097,0.5099,0.5091,0.5093,0.5091,0.5081,0.5084,0.5082,0.5077,0.5075,0.5071,0.5067,0.5063,0.5064,0.5067,0.5066,0.5065,0.5063,0.5073,0.5074,0.5075,0.5077,0.5078,0.5064,0.5063,0.5063,0.5063,0,0.5111,0.5112,0.5116,0.5112,0.5111,0.5113,0.5105,0.5104,0.5098,0.5093,0.5093,0.5087,0.5084,0.5083,0.5078,0.5083,0.508,0.5075,0.5067,0.5077,0.5079,0.508,0.5065,0.5064,0.5064,0.5064,0,0,0.5137,0.5127,0.5129,0.5126,0.5119,0.5119,0.512,0.5116,0.5115,0.5112,0.5111,0.5109,0.5103,0.51,0.5094,0.5094,0.5101,0.5088,0.5088,0.509,0.5104,0.5108,0.5109,0.5097,0.5097,0.5097,0.5104,0,0.5151,0.5153,0.5145,0.5149,0.5148,0.5138,0.5138,0.5133,0.5128,0.5126,0.5119,0.5117,0.511,0.5108,0.5108,0.5101,0.5104,0.51,0.5095,0.5095,0.5096,0.5111,0.5115,0.5122,0.5105,0.5105,0.5105,0,0.5167,0.5164,0.5168,0.5159,0.5159,0.5159,0.5154,0.5153,0.5146,0.5142,0.5138,0.513,0.5129,0.5122,0.5119,0.5116,0.5113,0.5109,0.5109,0.5108,0.51,0.5109,0.5125,0.5125,0.5107,0.5106,0.5106,0,0.5184,0.5181,0.5182,0.518,0.517,0.517,0.5166,0.5159,0.5157,0.5152,0.515,0.5145,0.5142,0.5137,0.5127,0.5123,0.5124,0.5117,0.512,0.512,0.512,0.512,0.5135,0.512,0.512,0.512,0.512,0,0.52,0.5202,0.5189,0.519,0.5191,0.5181,0.5183,0.5177,0.5171,0.5169,0.5159,0.5157,0.5145,0.5141,0.5134,0.5131,0.513,0.5125,0.5123,0.5126,0.5126,0.5124,0.5123,0.512,0.512,0.512,0.512,0,0.5219,0.5211,0.5211,0.5201,0.5198,0.52,0.5191,0.519,0.5183,0.5181,0.518,0.5169,0.5164,0.5153,0.5146,0.514,0.5139,0.5136,0.5142,0.514,0.5143,0.5142,0.5156,0.5157,0.5142,0.5142,0.5142,0,0.5229,0.523,0.522,0.5218,0.5215,0.5212,0.5209,0.5199,0.5196,0.5187,0.5187,0.5181,0.5176,0.5168,0.5159,0.5152,0.5148,0.5153,0.5147,0.5149,0.5147,0.5147,0.5146,0.5155,0.5155,0.5155,0.5155,0,0.5247,0.5243,0.5239,0.5234,0.5231,0.5226,0.5221,0.522,0.5207,0.5205,0.5199,0.5195,0.5187,0.5181,0.5172,0.5166,0.5158,0.5157,0.5157,0.516,0.5163,0.516,0.5145,0.5157,0.5157,0.5157,0.5156,0.5156,0.5261,0.5261,0.5254,0.525,0.5244,0.5239,0.5237,0.523,0.5226,0.5218,0.5212,0.5207,0.5198,0.5186,0.518,0.5175,0.5171,0.5172,0.5172,0.5172,0.5172,0.5164,0.5174,0.5174,0.5173,0.5173,0.5173,0,0.5278,0.5272,0.5268,0.5261,0.5257,0.525,0.5243,0.524,0.5236,0.5229,0.5224,0.5217,0.521,0.52,0.5192,0.5189,0.5185,0.5188,0.5187,0.5186,0.5177,0.5177,0.5191,0.5191,0.5191,0.5191,0.5191,0.5191,0.5286,0.5285,0.5279,0.5274,0.5268,0.5264,0.526,0.5254,0.5248,0.5241,0.5236,0.5229,0.522,0.5211,0.5204,0.52,0.5198,0.5201,0.5196,0.5188,0.5187,0.5185,0.5185,0.52,0.52,0.5206,0.5206,0.5206]},{"header":{"parameterUnit":"m.s-1","parameterCategory":1,"la1":30.2991,"la2":30.254,"lo1":-89.0895,"lo2":-89.0444,"dy":0.0017,"dx":0.0017,"nx":28,"ny":28,"refTime":"2025-06-01T03:00:00:Z","depth":0,"parameterNumber":3,"parameterNumberName":"V-component_of_WINDS"},"data":[0,0,0,0,0,0,0,0,0,0,0,0,0,0,0,0,0,0,0,0,0,0,0,0,0,0,0,0,0,0,0,0,0,0,0,0,0,0,0,0,0,0,0,0,0,0,0,0,0,0,0,0,0,0,0,0,0,0,-0.2477,-0.2477,0,-0.2418,-0.2417,-0.2416,-0.242,-0.242,-0.2421,-0.2422,-0.2364,-0.2362,-0.236,0,0,0,0,0,0,0,0,0,0,0,0,0,-0.2599,-0.2596,-0.2477,-0.2477,-0.2476,-0.2418,-0.2417,-0.2416,-0.2419,-0.242,-0.2421,-0.2422,-0.2365,-0.2362,-0.236,0,0,0,0,0,0,0,0,0,0,0,0,0,-0.2543,-0.2596,-0.2478,-0.247,-0.2469,-0.2418,-0.2417,-0.2416,-0.2419,-0.242,-0.2422,-0.2423,-0.2366,-0.2363,-0.2359,-0.2312,0,0,-0.2349,-0.2347,0,0,0,0,0,0,0,0,-0.2546,-0.2539,-0.2472,-0.2471,-0.2469,-0.2427,-0.2439,-0.2381,-0.2419,-0.2438,-0.2422,-0.2424,-0.2385,-0.238,-0.2366,-0.231,-0.2307,-0.2348,-0.2346,-0.2345,-0.2344,0,0,0,0,0,0,0,-0.255,-0.2541,-0.2454,-0.2471,-0.247,-0.2472,-0.2465,-0.2428,-0.2405,-0.2437,-0.2437,-0.2429,-0.2384,-0.2369,-0.2364,-0.2306,-0.2348,-0.2345,-0.2343,-0.2342,-0.221,-0.2209,0,0,0,0,0,0,-0.2555,-0.2545,-0.2456,-0.2452,-0.2512,-0.2468,-0.2461,-0.244,-0.2406,-0.2401,-0.2428,-0.243,-0.2374,-0.2368,-0.2362,-0.2306,-0.2345,-0.2341,-0.2339,-0.2211,-0.221,-0.2208,0,0,0,0,0,0,-0.2558,-0.2547,-0.2458,-0.2498,-0.2487,-0.2465,-0.2441,-0.2438,-0.2423,-0.2399,-0.2396,-0.2417,-0.2375,-0.2367,-0.2325,-0.2304,-0.234,-0.2337,-0.2213,-0.2211,-0.2209,-0.2191,0,0,0,0,0,0,-0.2561,-0.2548,-0.2529,-0.2498,-0.2485,-0.242,-0.2439,-0.2436,-0.2416,-0.2418,-0.2388,-0.2384,-0.2376,-0.233,-0.2321,-0.23,-0.2334,-0.2215,-0.2212,-0.221,-0.2194,-0.2189,-0.2185,0,0,0,0,0,-0.2565,-0.2527,-0.2528,-0.2517,-0.246,-0.2419,-0.2412,-0.2402,-0.2414,-0.2396,-0.2381,-0.2385,-0.2307,-0.2326,-0.2316,-0.2293,-0.2216,-0.2213,-0.221,-0.2196,-0.219,-0.2185,0,0,0,0,0,0,-0.2557,-0.2523,-0.2523,-0.2473,-0.2449,-0.2419,-0.2395,-0.2396,-0.2368,-0.2371,-0.2361,-0.2354,-0.2312,-0.2298,-0.2319,-0.2246,-0.2264,-0.2258,-0.2256,-0.2251,-0.2246,-0.225,-0.2331,0,0,0,0,0,-0.2549,-0.2517,-0.2489,-0.2448,-0.2436,-0.2418,-0.2399,-0.2394,-0.2369,-0.2359,-0.2341,-0.2317,-0.2288,-0.2268,-0.224,-0.2192,-0.2186,-0.2172,-0.2167,-0.2164,-0.2159,-0.2134,-0.2127,-0.2198,-0.2198,-0.2198,0,0,-0.2533,-0.251,-0.2491,-0.2446,-0.2426,-0.2394,-0.2409,-0.2375,-0.2351,-0.2354,-0.2312,-0.2298,-0.2272,-0.2226,-0.2206,-0.2214,-0.2139,-0.216,-0.2157,-0.2154,-0.213,-0.2123,-0.2117,-0.2196,-0.2196,-0.2196,0,0,-0.2487,-0.2466,-0.2429,-0.241,-0.2379,-0.2368,-0.2359,-0.233,-0.232,-0.2278,-0.228,-0.2253,-0.2202,-0.2183,-0.2167,-0.2115,-0.2118,-0.2106,-0.2083,-0.2058,-0.2053,-0.2048,-0.203,-0.2024,-0.2102,-0.2102,-0.2102,0,-0.2471,-0.2422,-0.2411,-0.2376,-0.2357,-0.2357,-0.2321,-0.2303,-0.2265,-0.2253,-0.2262,-0.2199,-0.2181,-0.2132,-0.2119,-0.2106,-0.2097,-0.2109,-0.2054,-0.2049,-0.2045,-0.2027,-0.2021,-0.2101,-0.2101,-0.2101,-0.2101,0,-0.2404,-0.237,-0.2344,-0.2307,-0.2285,-0.225,-0.2235,-0.2215,-0.2212,-0.22,-0.2158,-0.2136,-0.2104,-0.2092,-0.2089,-0.2042,-0.2048,-0.2056,-0.2074,-0.2037,-0.2021,-0.2014,-0.2099,-0.2099,-0.21,-0.21,0,0,-0.235,-0.2308,-0.2298,-0.2282,-0.2249,-0.2224,-0.2189,-0.2156,-0.2139,-0.2114,-0.2086,-0.2043,-0.205,-0.2032,-0.2027,-0.2006,-0.1967,-0.2016,-0.2016,-0.2008,-0.1916,-0.191,-0.1902,-0.1969,-0.1967,-0.1966,-0.1918,0,-0.2301,-0.2238,-0.2228,-0.2174,-0.2143,-0.2143,-0.2113,-0.2091,-0.2079,-0.2053,-0.2041,-0.201,-0.2022,-0.2011,-0.199,-0.1976,-0.1948,-0.1979,-0.1944,-0.1942,-0.195,-0.1894,-0.1887,-0.1843,-0.1911,-0.191,-0.191,0,-0.2235,-0.2207,-0.2149,-0.2121,-0.2108,-0.2081,-0.2051,-0.2025,-0.2,-0.1993,-0.1973,-0.1971,-0.1937,-0.1956,-0.191,-0.1932,-0.1917,-0.1908,-0.1906,-0.1902,-0.1924,-0.1889,-0.1828,-0.1821,-0.1899,-0.19,-0.1901,0,-0.2202,-0.215,-0.2108,-0.2094,-0.2061,-0.2042,-0.2028,-0.2004,-0.1985,-0.196,-0.1948,-0.1919,-0.1903,-0.1881,-0.1872,-0.1887,-0.1827,-0.1845,-0.1821,-0.1821,-0.1808,-0.1809,-0.1744,-0.1798,-0.1799,-0.1799,-0.1799,0,-0.2148,-0.2113,-0.2093,-0.2068,-0.2029,-0.2019,-0.1981,-0.1967,-0.1947,-0.192,-0.1919,-0.1894,-0.1883,-0.1858,-0.185,-0.1814,-0.1807,-0.1801,-0.18,-0.1801,-0.1802,-0.1791,-0.1794,-0.1797,-0.1797,-0.1798,-0.1798,0,-0.2104,-0.209,-0.2045,-0.2017,-0.2009,-0.1982,-0.1958,-0.1935,-0.1923,-0.189,-0.1881,-0.1864,-0.1833,-0.1822,-0.1785,-0.1781,-0.1739,-0.174,-0.1746,-0.1746,-0.1723,-0.1725,-0.1649,-0.1639,-0.17,-0.1699,-0.1698,0,-0.2071,-0.2043,-0.2012,-0.1994,-0.1978,-0.1948,-0.1929,-0.1919,-0.1899,-0.1869,-0.185,-0.1819,-0.1794,-0.1745,-0.1731,-0.1703,-0.1703,-0.1679,-0.1699,-0.1702,-0.1704,-0.1705,-0.1703,-0.1675,-0.1674,-0.1674,-0.1673,0,-0.2013,-0.2007,-0.1979,-0.1948,-0.1924,-0.19,-0.1876,-0.1862,-0.1848,-0.1826,-0.1795,-0.1775,-0.1737,-0.1707,-0.1679,-0.1666,-0.1668,-0.1667,-0.166,-0.1661,-0.1666,-0.1664,-0.1736,-0.1669,-0.1669,-0.1669,-0.167,-0.167,-0.1973,-0.1949,-0.1924,-0.1892,-0.1873,-0.1852,-0.1828,-0.1814,-0.1786,-0.1754,-0.175,-0.1716,-0.1694,-0.1656,-0.1642,-0.1616,-0.1623,-0.1613,-0.161,-0.1608,-0.1607,-0.167,-0.1611,-0.1611,-0.1611,-0.1611,-0.1611,0,-0.1916,-0.1899,-0.1871,-0.1837,-0.1813,-0.1816,-0.179,-0.177,-0.174,-0.1718,-0.1693,-0.1658,-0.1629,-0.1612,-0.1584,-0.1567,-0.1567,-0.156,-0.1561,-0.1558,-0.1602,-0.1611,-0.156,-0.156,-0.156,-0.156,-0.156,-0.156,-0.1883,-0.1843,-0.1834,-0.1785,-0.177,-0.1735,-0.172,-0.1701,-0.1684,-0.1643,-0.1619,-0.1608,-0.1589,-0.1559,-0.1533,-0.1529,-0.1519,-0.1511,-0.1508,-0.1549,-0.1555,-0.156,-0.1568,-0.1509,-0.1509,-0.1466,-0.1466,-0.1466]}]]